OXP 1

Satellite information

Favourite Embed

Satellite Type and Status

PAYLOADIN ORBIT

Key statistics

Satellite OXP 1 at a glance.

Uptime

11776

Days in orbit

Revolutions

≈ 14.5

Per day

Orbit

LEO

Low Earth Orbit

Inclination

25.0

Latest

Satellite identification and parameters

Extended collection of information and parameters for OXP 1.

Object identification

Identified? True

Debris? False

Object name: OXP 1

International designator: 1993-009A

Object number (NORAD): 22489

Object ID (CCSDS): 22489

Country: UNITED STATES OF AMERICA (US)

Current information (Y/N): Y

RCS size: LARGE

Orbital parameters

Period: 99.535 minutes

Inclination: 24.9629 deg

SMA: 7114.475 km

Apoapsis: 764.53 km

Periapsis: 708.149 km

RAAN: 180.4146 deg

Eccentricy: 0.0039624

Argument of periapsis: 196.7383 deg

Mean anomaly: 163.1817 deg

Mean motion: 14.46733395 rev/day

Mean motion (dot): 0.00000643 rev/day2

B* drag term: 0.00012283 1/REarth

Two-line elements (TLE)

Creation date: May 8, 2025, 3:01 a.m.

Reference frame: TEME

Reference center: EARTH

Epoch: May 7, 2025, 7:26 p.m. UTC

TLE line 0: 0 OXP 1

TLE line 1: 1 22489U 93009A 25127.80972607 .00000643 00000-0 12283-3 0 9994

TLE line 2: 2 22489 24.9629 180.4146 0039624 196.7383 163.1817 14.46733395702410

Live tracking on map

Real-time ground track for satellite OXP 1.

In-orbit conjunctions

A list of the most updated potential collisions computed for object OXP 1.

Target Orbit TCA Probability of collision Miss distance Type
CZ-6A DEB LEO 2024-12-05 20:24:48 0.0003338709 920.0 (m) DEBRIS
SL-8 DEB LEO 2024-09-21 12:09:01 0.0001886464 699.0 (m) DEBRIS
FENGYUN 1C DEB SSO 2024-08-27 10:59:30 0.0001107636 18.0 (m) DEBRIS

Associated space launch

OXP 1 was lifted into orbit during the mission ‘Pegasus | Satélite de Coleta de Dados-1 (SCD-1)’, on board a Pegasus space rocket.

The launch took place on Feb. 9, 1993, 2:30 p.m. from Cape Canaveral.

For more information about the launch, click the button.

Launch to space Pegasus | Satélite de Coleta de Dados-1 (SCD-1)
Pegasus | Satélite de Coleta de Dados-1 (SCD-1)

Agency: N/A

Status: Launch Successful

Launch date: Feb. 9, 1993, 2:30 p.m. UTC

Rocket: Pegasus

Launch pad: Cape Canaveral

Location: Air launch to orbit

...

Latest news about this satellite

There are no fresh news available about this satellite. Check back as we update our databases every day.


Newsletter sign-up

Weekly statistics, charts and insights to help you stay on top of the space industry.